Regional Weather Roundup
Issued by NWS

Home | Current Version | Previous Version | Graphics & Text | Print | Product List | Glossary On
Versions: 1 2 3 4 5 6 7 8 9 10 11 12 13 14 15 16 17 18 19 20 21 22 23 24 25 26 27 28 29 30 31 32 33 34 35 36 37 38 39 40 41 42 43 44 45 46 47 48 49 50
000
ASUS43 KLSX 250157
RWRMO

WEATHER SUMMARY FOR MISSOURI
NATIONAL WEATHER SERVICE SPRINGFIELD MO
900 PM CDT TUE APR 24 2018

NOTE: "FAIR" INDICATES FEW OR NO CLOUDS BELOW 12,000 FEET WITH NO
       SIGNIFICANT WEATHER AND/OR OBSTRUCTIONS TO VISIBILITY.
       CURRENT SKY AND/OR WEATHER CONDITIONS ARE NOT AVAILABLE FOR
       CHILLICOTHE AND FARMINGTON.

MOZ001>031-035>038-043-044-053-054-250300-
...NORTHERN AND WESTERN MISSOURI...

CITY           SKY/WX    TMP DP  RH WIND       PRES   REMARKS
KANSAS CTY INT CLOUDY    62  45  53 NW20G29   30.13R
LEE`S SUMMIT   CLOUDY    66  43  43 NW22G33   30.10R
ST JOSEPH      CLOUDY    61  48  62 NW28G39   30.13R
CHILLICOTHE      N/A     62  40  44 CALM      30.06R

$$
MOZ066>068-077>081-088>096-101>105-250300-
...SOUTHWEST MISSOURI...

CITY           SKY/WX    TMP DP  RH WIND       PRES   REMARKS
SPRINGFIELD    CLEAR     62  38  40 NW7       30.06R
JOPLIN         PTCLDY    66  37  34 CALM      30.08R
BRANSON        CLEAR     63  39  42 CALM      30.08R

$$
MOZ032>034-039>042-045>050-055>058-069>072-250300-
...CENTRAL MISSOURI...

CITY           SKY/WX    TMP DP  RH WIND       PRES   REMARKS
COLUMBIA       NOT AVBL
JEFFERSON CITY CLEAR     62  44  51 NW3       30.02R
ROLLA          PTCLDY    57  46  66 W3        30.04R
SEDALIA        CLOUDY    66  37  34 NW3       30.06R
WARRENSBURG    CLOUDY    66  36  32 CALM      30.05S

$$
MOZ051-052-059>065-250300-
...EAST CENTRAL MISSOURI...

CITY           SKY/WX    TMP DP  RH WIND       PRES   REMARKS
ST LOUIS INTL  PTCLDY    62  48  60 NW5       29.99R

$$
MOZ072>076-082>087-097>100-106>115-250300-
...SOUTH CENTRAL AND SOUTHEAST MISSOURI...

CITY           SKY/WX    TMP DP  RH WIND       PRES   REMARKS
CAPE GIRARDEAU FAIR      55  52  89 W3        30.01R
POPLAR BLUFF   FAIR      59  53  80 SE3       30.01R
WEST PLAINS    CLEAR     61  46  57 NW3       30.06R

$$




USA.gov is the U.S. government's official web portal to all federal, state and local government web resources and services.